Wetterdaten: Samstag, 15.11.2014
Datum Zeit Temperatur Luftfeuchte Luftdruck Regen Wind Richtung Richtung Taupunkt Windchill Windben
15.11.2014 00:00 1,8 C 95 % 1008,8 hPa 0,0 l/m 0,0 km/h (0 Bft) SO 135 1,1 C 7,8 C 0,0 km/h (0 Bft)
15.11.2014 00:05 2,1 C 95 % 1008,8 hPa 0,0 l/m 0,0 km/h (0 Bft) SO 135 1,4 C 7,8 C 0,0 km/h (0 Bft)
15.11.2014 00:10 2,4 C 95 % 1008,8 hPa 0,0 l/m 0,0 km/h (0 Bft) SO 135 1,7 C 7,8 C 0,0 km/h (0 Bft)
15.11.2014 00:15 2,6 C 95 % 1008,6 hPa 0,0 l/m 0,0 km/h (0 Bft) SO 135 1,9 C 7,8 C 0,0 km/h (0 Bft)
15.11.2014 00:20 2,7 C 95 % 1008,6 hPa 0,0 l/m 0,0 km/h (0 Bft) SO 135 2,0 C 7,8 C 0,0 km/h (0 Bft)
15.11.2014 00:25 2,9 C 95 % 1008,6 hPa 0,0 l/m 0,0 km/h (0 Bft) SO 135 2,2 C 7,8 C 0,0 km/h (0 Bft)
15.11.2014 00:30 3,0 C 95 % 1008,6 hPa 0,0 l/m 0,0 km/h (0 Bft) SO 135 2,3 C 7,8 C 0,0 km/h (0 Bft)
15.11.2014 00:35 3,0 C 95 % 1008,4 hPa 0,0 l/m 0,0 km/h (0 Bft) SO 135 2,3 C 7,8 C 0,0 km/h (0 Bft)
15.11.2014 00:40 3,0 C 95 % 1008,4 hPa 0,0 l/m 0,0 km/h (0 Bft) SO 135 2,3 C 7,8 C 0,0 km/h (0 Bft)
15.11.2014 00:45 2,9 C 96 % 1008,4 hPa 0,0 l/m 0,0 km/h (0 Bft) SO 135 2,3 C 7,8 C 0,0 km/h (0 Bft)
15.11.2014 00:50 2,7 C 96 % 1008,4 hPa 0,0 l/m 0,0 km/h (0 Bft) SO 135 2,1 C 7,8 C 0,0 km/h (0 Bft)
15.11.2014 00:55 2,6 C 95 % 1008,1 hPa 0,0 l/m 0,0 km/h (0 Bft) SO 135 1,9 C 7,8 C 0,0 km/h (0 Bft)
15.11.2014 01:00 2,6 C 95 % 1008,1 hPa 0,0 l/m 0,0 km/h (0 Bft) SO 135 1,9 C 7,8 C 0,0 km/h (0 Bft)
15.11.2014 01:05 2,7 C 95 % 1008,1 hPa 0,0 l/m 0,0 km/h (0 Bft) SO 135 2,0 C 7,8 C 0,0 km/h (0 Bft)
15.11.2014 01:10 2,7 C 95 % 1008,1 hPa 0,0 l/m 0,0 km/h (0 Bft) SO 135 2,0 C 7,8 C 0,0 km/h (0 Bft)
15.11.2014 01:15 2,6 C 95 % 1008,1 hPa 0,0 l/m 0,0 km/h (0 Bft) SO 135 1,9 C 7,8 C 0,0 km/h (0 Bft)
15.11.2014 01:20 2,7 C 95 % 1008,1 hPa 0,0 l/m 0,0 km/h (0 Bft) SO 135 2,0 C 7,8 C 0,0 km/h (0 Bft)
15.11.2014 01:25 2,6 C 95 % 1008,1 hPa 0,0 l/m 0,0 km/h (0 Bft) SO 135 1,9 C 7,8 C 0,0 km/h (0 Bft)
15.11.2014 01:30 2,6 C 95 % 1008,1 hPa 0,0 l/m 0,0 km/h (0 Bft) SO 135 1,9 C 7,8 C 0,0 km/h (0 Bft)
15.11.2014 01:35 2,6 C 95 % 1007,8 hPa 0,0 l/m 0,0 km/h (0 Bft) SO 135 1,9 C 7,8 C 0,0 km/h (0 Bft)
15.11.2014 01:40 2,7 C 95 % 1007,8 hPa 0,0 l/m 0,0 km/h (0 Bft) SO 135 2,0 C 7,8 C 0,0 km/h (0 Bft)
15.11.2014 01:45 2,7 C 95 % 1007,8 hPa 0,0 l/m 0,0 km/h (0 Bft) SO 135 2,0 C 7,8 C 0,0 km/h (0 Bft)
15.11.2014 01:50 2,6 C 95 % 1007,8 hPa 0,0 l/m 0,0 km/h (0 Bft) SO 135 1,9 C 7,8 C 0,0 km/h (0 Bft)
15.11.2014 01:55 2,6 C 95 % 1007,7 hPa 0,0 l/m 0,0 km/h (0 Bft) SO 135 1,9 C 7,8 C 0,0 km/h (0 Bft)
15.11.2014 02:00 2,6 C 95 % 1007,7 hPa 0,0 l/m 0,0 km/h (0 Bft) SO 135 1,9 C 7,8 C 0,0 km/h (0 Bft)
15.11.2014 02:05 2,6 C 95 % 1007,7 hPa 0,0 l/m 0,0 km/h (0 Bft) SO 135 1,9 C 7,8 C 0,0 km/h (0 Bft)
15.11.2014 02:10 2,4 C 95 % 1007,7 hPa 0,0 l/m 0,0 km/h (0 Bft) SO 135 1,7 C 7,8 C 0,0 km/h (0 Bft)
15.11.2014 02:15 2,3 C 95 % 1007,4 hPa 0,0 l/m 0,0 km/h (0 Bft) SO 135 1,6 C 7,8 C 0,0 km/h (0 Bft)
15.11.2014 02:20 2,4 C 95 % 1007,4 hPa 0,0 l/m 0,0 km/h (0 Bft) SO 135 1,7 C 7,8 C 0,0 km/h (0 Bft)
15.11.2014 02:25 2,4 C 95 % 1007,4 hPa 0,0 l/m 0,0 km/h (0 Bft) SO 135 1,7 C 7,8 C 0,0 km/h (0 Bft)
15.11.2014 02:30 2,4 C 95 % 1007,4 hPa 0,0 l/m 0,0 km/h (0 Bft) SO 135 1,7 C 7,8 C 0,0 km/h (0 Bft)
15.11.2014 02:35 2,4 C 95 % 1007,2 hPa 0,0 l/m 0,0 km/h (0 Bft) SO 135 1,7 C 7,8 C 0,0 km/h (0 Bft)
15.11.2014 02:40 2,3 C 95 % 1007,2 hPa 0,0 l/m 0,0 km/h (0 Bft) SO 135 1,6 C 7,8 C 0,0 km/h (0 Bft)
15.11.2014 02:45 2,3 C 95 % 1007,2 hPa 0,0 l/m 0,0 km/h (0 Bft) SO 135 1,6 C 7,8 C 0,0 km/h (0 Bft)
15.11.2014 02:48 2,2 C 95 % 1007,2 hPa 0,0 l/m 0,0 km/h (0 Bft) SO 135 1,5 C 7,8 C 0,0 km/h (0 Bft)
15.11.2014 02:50 2,2 C 95 % 1007,2 hPa 0,0 l/m 0,0 km/h (0 Bft) SO 135 1,5 C 7,8 C 0,0 km/h (0 Bft)
15.11.2014 02:55 2,3 C 95 % 1007,0 hPa 0,0 l/m 0,0 km/h (0 Bft) SO 135 1,6 C 7,8 C 0,0 km/h (0 Bft)
15.11.2014 03:00 2,1 C 95 % 1007,0 hPa 0,0 l/m 0,0 km/h (0 Bft) SO 135 1,4 C 7,8 C 0,0 km/h (0 Bft)
15.11.2014 03:05 2,3 C 95 % 1007,0 hPa 0,0 l/m 0,0 km/h (0 Bft) SO 135 1,6 C 7,8 C 0,0 km/h (0 Bft)
15.11.2014 03:10 2,1 C 95 % 1007,0 hPa 0,0 l/m 0,0 km/h (0 Bft) SO 135 1,4 C 7,8 C 0,0 km/h (0 Bft)
15.11.2014 03:15 2,0 C 95 % 1006,8 hPa 0,0 l/m 0,0 km/h (0 Bft) SO 135 1,3 C 7,8 C 0,0 km/h (0 Bft)
15.11.2014 03:20 1,9 C 96 % 1006,8 hPa 0,0 l/m 0,0 km/h (0 Bft) SO 135 1,3 C 7,8 C 0,0 km/h (0 Bft)
15.11.2014 03:25 1,8 C 96 % 1006,8 hPa 0,0 l/m 0,0 km/h (0 Bft) SO 135 1,2 C 7,8 C 0,0 km/h (0 Bft)
15.11.2014 03:30 1,5 C 96 % 1006,8 hPa 0,0 l/m 0,0 km/h (0 Bft) SO 135 0,9 C 7,8 C 0,0 km/h (0 Bft)
15.11.2014 03:35 1,4 C 96 % 1006,4 hPa 0,0 l/m 0,0 km/h (0 Bft) SO 135 0,8 C 7,8 C 0,0 km/h (0 Bft)
15.11.2014 03:40 1,6 C 96 % 1006,4 hPa 0,7 l/m 0,0 km/h (0 Bft) SO 135 1,0 C 7,8 C 0,0 km/h (0 Bft)
15.11.2014 03:45 1,8 C 96 % 1006,4 hPa 0,0 l/m 0,0 km/h (0 Bft) SO 135 1,2 C 7,8 C 0,0 km/h (0 Bft)
15.11.2014 03:50 1,3 C 96 % 1006,4 hPa 0,0 l/m 0,0 km/h (0 Bft) SO 135 0,7 C 7,8 C 0,0 km/h (0 Bft)
15.11.2014 03:55 1,4 C 96 % 1006,1 hPa 0,0 l/m 0,0 km/h (0 Bft) SO 135 0,8 C 7,8 C 0,0 km/h (0 Bft)
15.11.2014 04:00 1,3 C 96 % 1006,1 hPa 0,0 l/m 0,0 km/h (0 Bft) SO 135 0,7 C 7,8 C 0,0 km/h (0 Bft)
15.11.2014 04:05 1,3 C 96 % 1006,1 hPa 0,0 l/m 0,0 km/h (0 Bft) SO 135 0,7 C 7,8 C 0,0 km/h (0 Bft)
15.11.2014 04:10 1,4 C 96 % 1006,1 hPa 0,0 l/m 0,0 km/h (0 Bft) SO 135 0,8 C 7,8 C 0,0 km/h (0 Bft)
15.11.2014 04:15 1,4 C 96 % 1006,1 hPa 0,0 l/m 0,0 km/h (0 Bft) SO 135 0,8 C 7,8 C 0,0 km/h (0 Bft)
15.11.2014 04:20 1,6 C 96 % 1006,1 hPa 0,0 l/m 0,0 km/h (0 Bft) SO 135 1,0 C 7,8 C 0,0 km/h (0 Bft)
15.11.2014 04:25 1,6 C 96 % 1006,1 hPa 0,0 l/m 0,0 km/h (0 Bft) SO 135 1,0 C 7,8 C 0,0 km/h (0 Bft)
15.11.2014 04:30 1,1 C 96 % 1006,1 hPa 0,0 l/m 0,0 km/h (0 Bft) SO 135 0,5 C 7,8 C 0,0 km/h (0 Bft)
15.11.2014 04:35 0,9 C 96 % 1005,8 hPa 0,0 l/m 0,0 km/h (0 Bft) SO 135 0,3 C 7,8 C 0,0 km/h (0 Bft)
15.11.2014 04:40 0,6 C 96 % 1005,8 hPa 0,0 l/m 0,0 km/h (0 Bft) SO 135 0,0 C 7,8 C 0,0 km/h (0 Bft)
15.11.2014 04:45 1,0 C 96 % 1005,8 hPa 0,0 l/m 0,0 km/h (0 Bft) SO 135 0,4 C 7,8 C 0,0 km/h (0 Bft)
15.11.2014 04:50 1,2 C 96 % 1005,8 hPa 0,0 l/m 0,0 km/h (0 Bft) SO 135 0,6 C 7,8 C 0,0 km/h (0 Bft)
15.11.2014 04:55 0,9 C 96 % 1005,5 hPa 0,0 l/m 0,0 km/h (0 Bft) SO 135 0,3 C 7,8 C 0,0 km/h (0 Bft)
15.11.2014 05:00 0,7 C 96 % 1005,5 hPa 0,0 l/m 0,0 km/h (0 Bft) SO 135 0,1 C 7,8 C 0,0 km/h (0 Bft)
15.11.2014 05:05 1,0 C 96 % 1005,5 hPa 0,0 l/m 0,0 km/h (0 Bft) SO 135 0,4 C 7,8 C 0,0 km/h (0 Bft)
15.11.2014 05:10 0,6 C 96 % 1005,5 hPa 0,0 l/m 0,0 km/h (0 Bft) SO 135 0,0 C 7,8 C 0,0 km/h (0 Bft)
15.11.2014 05:15 1,0 C 96 % 1005,8 hPa 0,0 l/m 0,0 km/h (0 Bft) SO 135 0,4 C 7,8 C 0,0 km/h (0 Bft)
15.11.2014 05:20 0,6 C 96 % 1005,8 hPa 0,0 l/m 0,0 km/h (0 Bft) SO 135 0,0 C 7,8 C 0,0 km/h (0 Bft)
15.11.2014 05:25 0,3 C 96 % 1005,8 hPa 0,0 l/m 0,0 km/h (0 Bft) SO 135 -0,3 C 7,8 C 0,0 km/h (0 Bft)
15.11.2014 05:30 0,7 C 96 % 1005,8 hPa 0,0 l/m 0,0 km/h (0 Bft) SO 135 0,1 C 7,8 C 0,0 km/h (0 Bft)
15.11.2014 05:35 0,4 C 96 % 1005,9 hPa 0,0 l/m 0,0 km/h (0 Bft) SO 135 -0,2 C 7,8 C 0,0 km/h (0 Bft)
15.11.2014 05:40 0,2 C 96 % 1005,9 hPa 0,0 l/m 0,0 km/h (0 Bft) SO 135 -0,4 C 7,8 C 0,0 km/h (0 Bft)
15.11.2014 05:45 0,4 C 96 % 1005,9 hPa 0,0 l/m 0,0 km/h (0 Bft) SO 135 -0,2 C 7,8 C 0,0 km/h (0 Bft)
15.11.2014 05:48 0,6 C 97 % 1005,9 hPa 0,0 l/m 0,0 km/h (0 Bft) SO 135 0,2 C 7,8 C 0,0 km/h (0 Bft)
15.11.2014 05:50 0,6 C 97 % 1005,9 hPa 0,0 l/m 0,0 km/h (0 Bft) SO 135 0,2 C 7,8 C 0,0 km/h (0 Bft)
15.11.2014 05:55 0,6 C 97 % 1005,8 hPa 0,0 l/m 0,0 km/h (0 Bft) SO 135 0,2 C 7,8 C 0,0 km/h (0 Bft)
15.11.2014 06:00 0,4 C 97 % 1005,8 hPa 0,0 l/m 0,0 km/h (0 Bft) SO 135 -0,0 C 7,8 C 0,0 km/h (0 Bft)
15.11.2014 06:05 0,3 C 97 % 1005,8 hPa 0,0 l/m 0,0 km/h (0 Bft) SO 135 -0,1 C 7,8 C 0,0 km/h (0 Bft)
15.11.2014 06:10 0,5 C 97 % 1005,8 hPa 0,0 l/m 0,0 km/h (0 Bft) SO 135 0,1 C 7,8 C 0,0 km/h (0 Bft)
15.11.2014 06:15 0,5 C 97 % 1005,4 hPa 0,0 l/m 0,0 km/h (0 Bft) SO 135 0,1 C 7,8 C 0,0 km/h (0 Bft)
15.11.2014 06:20 0,3 C 97 % 1005,4 hPa 0,0 l/m 0,0 km/h (0 Bft) SO 135 -0,1 C 7,8 C 0,0 km/h (0 Bft)
15.11.2014 06:25 0,2 C 97 % 1005,4 hPa 0,0 l/m 0,0 km/h (0 Bft) SO 135 -0,2 C 7,8 C 0,0 km/h (0 Bft)
15.11.2014 06:30 0,4 C 97 % 1005,4 hPa 0,0 l/m 0,0 km/h (0 Bft) SO 135 -0,0 C 7,8 C 0,0 km/h (0 Bft)
15.11.2014 06:35 0,5 C 97 % 1005,6 hPa 0,0 l/m 0,0 km/h (0 Bft) SO 135 0,1 C 7,8 C 0,0 km/h (0 Bft)
15.11.2014 06:40 0,2 C 97 % 1005,6 hPa 0,0 l/m 0,0 km/h (0 Bft) SO 135 -0,2 C 7,8 C 0,0 km/h (0 Bft)
15.11.2014 06:45 0,1 C 97 % 1005,6 hPa 0,0 l/m 0,0 km/h (0 Bft) SO 135 -0,3 C 7,8 C 0,0 km/h (0 Bft)
15.11.2014 06:50 0,0 C 97 % 1005,6 hPa 0,0 l/m 0,0 km/h (0 Bft) SO 135 -0,4 C 7,8 C 0,0 km/h (0 Bft)
15.11.2014 06:55 0,2 C 97 % 1005,9 hPa 0,0 l/m 0,0 km/h (0 Bft) SO 135 -0,2 C 7,8 C 0,0 km/h (0 Bft)
15.11.2014 07:00 0,5 C 97 % 1005,9 hPa 0,0 l/m 0,0 km/h (0 Bft) SO 135 0,1 C 7,8 C 0,0 km/h (0 Bft)
15.11.2014 07:05 0,5 C 97 % 1005,9 hPa 0,0 l/m 0,0 km/h (0 Bft) SO 135 0,1 C 7,8 C 0,0 km/h (0 Bft)
15.11.2014 07:10 0,7 C 97 % 1005,9 hPa 0,0 l/m 0,0 km/h (0 Bft) SO 135 0,3 C 7,8 C 0,0 km/h (0 Bft)
15.11.2014 07:15 2,3 C 97 % 1005,9 hPa 0,0 l/m 0,0 km/h (0 Bft) SO 135 1,9 C 7,8 C 0,0 km/h (0 Bft)
15.11.2014 07:20 1,1 C 97 % 1005,9 hPa 0,0 l/m 0,0 km/h (0 Bft) SO 135 0,7 C 7,8 C 0,0 km/h (0 Bft)
15.11.2014 07:25 0,7 C 97 % 1005,9 hPa 0,0 l/m 0,0 km/h (0 Bft) SO 135 0,3 C 7,8 C 0,0 km/h (0 Bft)
15.11.2014 07:30 0,9 C 97 % 1005,9 hPa 0,0 l/m 0,0 km/h (0 Bft) SO 135 0,5 C 7,8 C 0,0 km/h (0 Bft)
15.11.2014 07:35 0,9 C 97 % 1006,0 hPa 0,0 l/m 0,0 km/h (0 Bft) SO 135 0,5 C 7,8 C 0,0 km/h (0 Bft)
15.11.2014 07:40 0,8 C 97 % 1006,0 hPa 0,0 l/m 0,0 km/h (0 Bft) SO 135 0,4 C 7,8 C 0,0 km/h (0 Bft)
15.11.2014 07:45 2,3 C 97 % 1006,0 hPa 0,0 l/m 0,0 km/h (0 Bft) SO 135 1,9 C 7,8 C 0,0 km/h (0 Bft)
15.11.2014 07:50 1,3 C 97 % 1006,0 hPa 0,0 l/m 0,0 km/h (0 Bft) SO 135 0,9 C 7,8 C 0,0 km/h (0 Bft)
15.11.2014 07:55 1,4 C 97 % 1006,1 hPa 0,0 l/m 0,0 km/h (0 Bft) SO 135 1,0 C 7,8 C 0,0 km/h (0 Bft)
15.11.2014 08:00 1,4 C 97 % 1006,1 hPa 0,0 l/m 0,0 km/h (0 Bft) SO 135 1,0 C 7,8 C 0,0 km/h (0 Bft)
15.11.2014 08:05 1,5 C 97 % 1006,1 hPa 0,0 l/m 0,0 km/h (0 Bft) SO 135 1,1 C 7,8 C 0,0 km/h (0 Bft)
15.11.2014 08:10 1,6 C 97 % 1006,1 hPa 0,0 l/m 0,0 km/h (0 Bft) SO 135 1,2 C 7,8 C 0,0 km/h (0 Bft)
15.11.2014 08:15 1,8 C 97 % 1006,3 hPa 0,0 l/m 0,0 km/h (0 Bft) SO 135 1,4 C 7,8 C 0,0 km/h (0 Bft)
15.11.2014 08:20 1,9 C 97 % 1006,3 hPa 0,0 l/m 0,0 km/h (0 Bft) SO 135 1,5 C 7,8 C 0,0 km/h (0 Bft)
15.11.2014 08:25 2,0 C 97 % 1006,3 hPa 0,0 l/m 0,0 km/h (0 Bft) SO 135 1,6 C 7,8 C 0,0 km/h (0 Bft)
15.11.2014 08:30 2,3 C 97 % 1006,3 hPa 0,0 l/m 0,0 km/h (0 Bft) SO 135 1,9 C 7,8 C 0,0 km/h (0 Bft)
15.11.2014 08:35 2,4 C 97 % 1006,1 hPa 0,0 l/m 0,0 km/h (0 Bft) SO 135 2,0 C 7,8 C 0,0 km/h (0 Bft)
15.11.2014 08:40 2,4 C 97 % 1006,1 hPa 0,0 l/m 0,0 km/h (0 Bft) SO 135 2,0 C 7,8 C 0,0 km/h (0 Bft)
15.11.2014 08:45 2,7 C 97 % 1006,1 hPa 0,0 l/m 0,0 km/h (0 Bft) SO 135 2,3 C 7,8 C 0,0 km/h (0 Bft)
15.11.2014 08:48 2,5 C 97 % 1006,1 hPa 0,0 l/m 0,0 km/h (0 Bft) SO 135 2,1 C 7,8 C 0,0 km/h (0 Bft)
15.11.2014 08:50 2,5 C 97 % 1006,1 hPa 0,0 l/m 0,0 km/h (0 Bft) SO 135 2,1 C 7,8 C 0,0 km/h (0 Bft)
15.11.2014 08:55 2,8 C 97 % 1007,0 hPa 0,0 l/m 0,0 km/h (0 Bft) SO 135 2,4 C 7,8 C 0,0 km/h (0 Bft)
15.11.2014 09:00 3,0 C 96 % 1007,0 hPa 0,0 l/m 0,0 km/h (0 Bft) SO 135 2,4 C 7,8 C 0,0 km/h (0 Bft)
15.11.2014 09:05 3,4 C 96 % 1007,0 hPa 0,0 l/m 0,0 km/h (0 Bft) SO 135 2,8 C 7,8 C 0,0 km/h (0 Bft)
15.11.2014 09:10 4,4 C 96 % 1007,0 hPa 0,0 l/m 0,0 km/h (0 Bft) SO 135 3,8 C 7,8 C 0,0 km/h (0 Bft)
15.11.2014 09:15 5,1 C 96 % 1007,4 hPa 0,0 l/m 0,0 km/h (0 Bft) SO 135 4,5 C 7,8 C 0,0 km/h (0 Bft)
15.11.2014 09:20 5,4 C 96 % 1007,4 hPa 0,0 l/m 0,0 km/h (0 Bft) SO 135 4,8 C 7,8 C 0,0 km/h (0 Bft)
15.11.2014 09:25 5,6 C 96 % 1007,4 hPa 0,0 l/m 0,0 km/h (0 Bft) SO 135 5,0 C 7,8 C 0,0 km/h (0 Bft)
15.11.2014 09:30 5,9 C 96 % 1007,4 hPa 0,0 l/m 0,0 km/h (0 Bft) SO 135 5,3 C 7,8 C 0,0 km/h (0 Bft)
15.11.2014 09:35 6,1 C 95 % 1007,6 hPa 0,0 l/m 0,0 km/h (0 Bft) SO 135 5,4 C 7,8 C 0,0 km/h (0 Bft)
15.11.2014 09:40 6,2 C 95 % 1007,6 hPa 0,0 l/m 0,0 km/h (0 Bft) SO 135 5,5 C 7,8 C 0,0 km/h (0 Bft)
15.11.2014 09:45 6,3 C 95 % 1007,6 hPa 0,0 l/m 0,0 km/h (0 Bft) SO 135 5,6 C 7,8 C 0,0 km/h (0 Bft)
15.11.2014 09:50 6,5 C 95 % 1007,6 hPa 0,0 l/m 0,0 km/h (0 Bft) SO 135 5,8 C 7,8 C 0,0 km/h (0 Bft)
15.11.2014 09:55 6,7 C 95 % 1008,0 hPa 0,0 l/m 0,0 km/h (0 Bft) SO 135 6,0 C 7,8 C 0,0 km/h (0 Bft)
15.11.2014 10:00 7,1 C 95 % 1008,0 hPa 0,0 l/m 0,0 km/h (0 Bft) SO 135 6,4 C 7,8 C 0,0 km/h (0 Bft)
15.11.2014 10:05 7,4 C 94 % 1008,0 hPa 0,0 l/m 0,0 km/h (0 Bft) SO 135 6,5 C 7,8 C 0,0 km/h (0 Bft)
15.11.2014 10:10 7,8 C 94 % 1008,0 hPa 0,0 l/m 0,0 km/h (0 Bft) SO 135 6,9 C 7,8 C 0,0 km/h (0 Bft)
15.11.2014 10:15 7,9 C 93 % 1008,1 hPa 0,0 l/m 0,0 km/h (0 Bft) SO 135 6,8 C 7,8 C 0,0 km/h (0 Bft)
15.11.2014 10:20 8,1 C 92 % 1008,1 hPa 0,0 l/m 0,0 km/h (0 Bft) SO 135 6,9 C 7,8 C 0,0 km/h (0 Bft)
15.11.2014 10:25 8,3 C 90 % 1008,1 hPa 0,0 l/m 0,0 km/h (0 Bft) SO 135 6,8 C 7,8 C 0,0 km/h (0 Bft)
15.11.2014 10:30 8,4 C 87 % 1008,1 hPa 0,0 l/m 0,0 km/h (0 Bft) SO 135 6,4 C 7,8 C 0,0 km/h (0 Bft)
15.11.2014 10:35 8,6 C 85 % 1008,3 hPa 0,0 l/m 0,0 km/h (0 Bft) SO 135 6,2 C 7,8 C 0,0 km/h (0 Bft)
15.11.2014 10:40 8,7 C 82 % 1008,3 hPa 0,0 l/m 0,0 km/h (0 Bft) SO 135 5,8 C 7,8 C 0,0 km/h (0 Bft)
15.11.2014 10:45 8,7 C 80 % 1008,3 hPa 0,0 l/m 0,0 km/h (0 Bft) SO 135 5,4 C 7,8 C 0,0 km/h (0 Bft)
15.11.2014 10:50 8,9 C 82 % 1008,3 hPa 0,0 l/m 0,0 km/h (0 Bft) SO 135 6,0 C 7,8 C 0,0 km/h (0 Bft)
15.11.2014 10:55 8,9 C 81 % 1008,8 hPa 0,0 l/m 0,0 km/h (0 Bft) SO 135 5,8 C 7,8 C 0,0 km/h (0 Bft)
15.11.2014 11:00 8,9 C 82 % 1008,8 hPa 0,0 l/m 0,0 km/h (0 Bft) SO 135 6,0 C 7,8 C 0,0 km/h (0 Bft)
15.11.2014 11:05 8,9 C 80 % 1008,8 hPa 0,0 l/m 0,0 km/h (0 Bft) SO 135 5,6 C 7,8 C 0,0 km/h (0 Bft)
15.11.2014 11:10 8,9 C 80 % 1008,8 hPa 0,0 l/m 0,0 km/h (0 Bft) SO 135 5,6 C 7,8 C 0,0 km/h (0 Bft)
15.11.2014 11:15 9,0 C 81 % 1008,7 hPa 0,0 l/m 0,0 km/h (0 Bft) SO 135 5,9 C 7,8 C 0,0 km/h (0 Bft)
15.11.2014 11:20 9,0 C 79 % 1008,7 hPa 0,0 l/m 0,0 km/h (0 Bft) SO 135 5,6 C 7,8 C 0,0 km/h (0 Bft)
15.11.2014 11:25 9,0 C 80 % 1008,7 hPa 0,0 l/m 0,0 km/h (0 Bft) SO 135 5,7 C 7,8 C 0,0 km/h (0 Bft)
15.11.2014 11:30 9,1 C 80 % 1008,7 hPa 0,0 l/m 0,0 km/h (0 Bft) SO 135 5,8 C 7,8 C 0,0 km/h (0 Bft)
15.11.2014 11:35 9,2 C 80 % 1008,4 hPa 0,0 l/m 0,0 km/h (0 Bft) SO 135 5,9 C 7,8 C 0,0 km/h (0 Bft)
15.11.2014 11:40 9,3 C 82 % 1008,4 hPa 0,0 l/m 0,0 km/h (0 Bft) SO 135 6,4 C 7,8 C 0,0 km/h (0 Bft)
15.11.2014 11:43 9,4 C 81 % 1008,4 hPa 0,0 l/m 0,0 km/h (0 Bft) SO 135 6,3 C 7,8 C 0,0 km/h (0 Bft)
15.11.2014 11:45 9,4 C 81 % 1008,4 hPa 0,0 l/m 0,0 km/h (0 Bft) SO 135 6,3 C 7,8 C 0,0 km/h (0 Bft)
15.11.2014 11:50 9,4 C 81 % 1008,4 hPa 0,0 l/m 0,0 km/h (0 Bft) SO 135 6,3 C 7,8 C 0,0 km/h (0 Bft)
15.11.2014 11:55 9,5 C 80 % 1008,4 hPa 0,0 l/m 0,0 km/h (0 Bft) SO 135 6,2 C 7,8 C 0,0 km/h (0 Bft)
15.11.2014 12:00 9,7 C 79 % 1008,4 hPa 0,0 l/m 0,0 km/h (0 Bft) SO 135 6,2 C 7,8 C 0,0 km/h (0 Bft)
15.11.2014 12:05 9,8 C 79 % 1008,4 hPa 0,0 l/m 0,0 km/h (0 Bft) SO 135 6,3 C 7,8 C 0,0 km/h (0 Bft)
15.11.2014 12:10 9,9 C 80 % 1008,4 hPa 0,0 l/m 0,0 km/h (0 Bft) SO 135 6,6 C 7,8 C 0,0 km/h (0 Bft)
15.11.2014 12:15 9,9 C 80 % 1008,1 hPa 0,0 l/m 0,0 km/h (0 Bft) SO 135 6,6 C 7,8 C 0,0 km/h (0 Bft)
15.11.2014 12:20 10,1 C 79 % 1008,1 hPa 0,0 l/m 0,0 km/h (0 Bft) SO 135 6,6 C 7,8 C 0,0 km/h (0 Bft)
15.11.2014 12:25 10,1 C 81 % 1008,1 hPa 0,0 l/m 0,0 km/h (0 Bft) SO 135 7,0 C 7,8 C 0,0 km/h (0 Bft)
15.11.2014 12:30 10,2 C 81 % 1008,1 hPa 0,0 l/m 0,0 km/h (0 Bft) SO 135 7,1 C 7,8 C 0,0 km/h (0 Bft)
15.11.2014 12:35 10,2 C 81 % 1007,9 hPa 0,0 l/m 0,0 km/h (0 Bft) SO 135 7,1 C 7,8 C 0,0 km/h (0 Bft)
15.11.2014 12:40 10,4 C 81 % 1007,9 hPa 0,0 l/m 0,0 km/h (0 Bft) SO 135 7,3 C 7,8 C 0,0 km/h (0 Bft)
15.11.2014 12:45 10,4 C 80 % 1007,9 hPa 0,0 l/m 0,0 km/h (0 Bft) SO 135 7,1 C 7,8 C 0,0 km/h (0 Bft)
15.11.2014 12:50 10,5 C 80 % 1007,9 hPa 0,0 l/m 0,0 km/h (0 Bft) SO 135 7,2 C 7,8 C 0,0 km/h (0 Bft)
15.11.2014 12:55 10,6 C 81 % 1007,7 hPa 0,0 l/m 0,0 km/h (0 Bft) SO 135 7,5 C 7,8 C 0,0 km/h (0 Bft)
15.11.2014 13:00 10,7 C 80 % 1007,7 hPa 0,0 l/m 0,0 km/h (0 Bft) SO 135 7,4 C 7,8 C 0,0 km/h (0 Bft)
15.11.2014 13:05 10,8 C 80 % 1007,7 hPa 0,0 l/m 0,0 km/h (0 Bft) SO 135 7,5 C 7,8 C 0,0 km/h (0 Bft)
15.11.2014 13:10 10,6 C 79 % 1007,7 hPa 0,0 l/m 0,0 km/h (0 Bft) SO 135 7,1 C 7,8 C 0,0 km/h (0 Bft)
15.11.2014 13:15 10,7 C 80 % 1007,9 hPa 0,0 l/m 0,0 km/h (0 Bft) SO 135 7,4 C 7,8 C 0,0 km/h (0 Bft)
15.11.2014 13:20 10,8 C 78 % 1007,9 hPa 0,0 l/m 0,0 km/h (0 Bft) SO 135 7,1 C 7,8 C 0,0 km/h (0 Bft)
15.11.2014 13:25 10,9 C 77 % 1007,9 hPa 0,0 l/m 0,0 km/h (0 Bft) SO 135 7,0 C 7,8 C 0,0 km/h (0 Bft)
15.11.2014 13:30 10,9 C 77 % 1007,9 hPa 0,0 l/m 0,0 km/h (0 Bft) SO 135 7,0 C 7,8 C 0,0 km/h (0 Bft)
15.11.2014 13:35 10,8 C 77 % 1007,6 hPa 0,0 l/m 0,0 km/h (0 Bft) SO 135 6,9 C 7,8 C 0,0 km/h (0 Bft)
15.11.2014 13:40 10,6 C 75 % 1007,6 hPa 0,0 l/m 0,0 km/h (0 Bft) SO 135 6,4 C 7,8 C 0,0 km/h (0 Bft)
15.11.2014 13:45 10,6 C 76 % 1007,6 hPa 0,0 l/m 0,0 km/h (0 Bft) SO 135 6,5 C 7,8 C 0,0 km/h (0 Bft)
15.11.2014 13:50 10,3 C 77 % 1007,6 hPa 0,0 l/m 0,0 km/h (0 Bft) SO 135 6,4 C 7,8 C 0,0 km/h (0 Bft)
15.11.2014 13:55 10,2 C 77 % 1007,2 hPa 0,0 l/m 0,0 km/h (0 Bft) SO 135 6,4 C 7,8 C 0,0 km/h (0 Bft)
15.11.2014 14:00 9,9 C 78 % 1007,2 hPa 0,0 l/m 0,0 km/h (0 Bft) SO 135 6,2 C 7,8 C 0,0 km/h (0 Bft)
15.11.2014 14:05 9,7 C 78 % 1007,2 hPa 0,0 l/m 0,0 km/h (0 Bft) SO 135 6,1 C 7,8 C 0,0 km/h (0 Bft)
15.11.2014 14:10 9,6 C 79 % 1007,2 hPa 0,0 l/m 0,0 km/h (0 Bft) SO 135 6,1 C 7,8 C 0,0 km/h (0 Bft)
15.11.2014 14:15 9,6 C 79 % 1007,0 hPa 0,0 l/m 0,0 km/h (0 Bft) SO 135 6,1 C 7,8 C 0,0 km/h (0 Bft)
15.11.2014 14:20 9,4 C 80 % 1007,0 hPa 0,0 l/m 0,0 km/h (0 Bft) SO 135 6,1 C 7,8 C 0,0 km/h (0 Bft)
15.11.2014 14:25 9,3 C 80 % 1007,0 hPa 0,0 l/m 0,0 km/h (0 Bft) SO 135 6,0 C 7,8 C 0,0 km/h (0 Bft)
15.11.2014 14:30 9,2 C 81 % 1007,0 hPa 0,0 l/m 0,0 km/h (0 Bft) SO 135 6,1 C 7,8 C 0,0 km/h (0 Bft)
15.11.2014 14:35 9,1 C 81 % 1006,6 hPa 0,0 l/m 0,0 km/h (0 Bft) SO 135 6,0 C 7,8 C 0,0 km/h (0 Bft)
15.11.2014 14:40 9,0 C 81 % 1006,6 hPa 0,0 l/m 0,0 km/h (0 Bft) SO 135 5,9 C 7,8 C 0,0 km/h (0 Bft)
15.11.2014 14:43 8,9 C 82 % 1006,6 hPa 0,0 l/m 0,0 km/h (0 Bft) SO 135 6,0 C 7,8 C 0,0 km/h (0 Bft)
15.11.2014 14:45 8,9 C 82 % 1006,6 hPa 0,0 l/m 0,0 km/h (0 Bft) SO 135 6,0 C 7,8 C 0,0 km/h (0 Bft)
15.11.2014 14:50 9,0 C 82 % 1006,6 hPa 0,0 l/m 0,0 km/h (0 Bft) SO 135 6,1 C 7,8 C 0,0 km/h (0 Bft)
15.11.2014 14:55 8,9 C 82 % 1006,4 hPa 0,0 l/m 0,0 km/h (0 Bft) SO 135 6,0 C 7,8 C 0,0 km/h (0 Bft)
15.11.2014 15:00 8,8 C 82 % 1006,4 hPa 0,0 l/m 0,0 km/h (0 Bft) SO 135 5,9 C 7,8 C 0,0 km/h (0 Bft)
15.11.2014 15:05 8,7 C 83 % 1006,4 hPa 0,0 l/m 0,0 km/h (0 Bft) SO 135 6,0 C 7,8 C 0,0 km/h (0 Bft)
15.11.2014 15:10 8,5 C 83 % 1006,4 hPa 0,0 l/m 0,0 km/h (0 Bft) SO 135 5,8 C 7,8 C 0,0 km/h (0 Bft)
15.11.2014 15:15 8,4 C 83 % 1006,1 hPa 0,0 l/m 0,0 km/h (0 Bft) SO 135 5,7 C 7,8 C 0,0 km/h (0 Bft)
15.11.2014 15:20 8,3 C 83 % 1006,1 hPa 0,0 l/m 0,0 km/h (0 Bft) SO 135 5,6 C 7,8 C 0,0 km/h (0 Bft)
15.11.2014 15:25 8,3 C 83 % 1006,1 hPa 0,0 l/m 0,0 km/h (0 Bft) SO 135 5,6 C 7,8 C 0,0 km/h (0 Bft)
15.11.2014 15:30 8,2 C 83 % 1006,1 hPa 0,0 l/m 0,0 km/h (0 Bft) SO 135 5,5 C 7,8 C 0,0 km/h (0 Bft)
15.11.2014 15:35 8,1 C 83 % 1006,0 hPa 0,0 l/m 0,0 km/h (0 Bft) SO 135 5,4 C 7,8 C 0,0 km/h (0 Bft)
15.11.2014 15:40 8,1 C 84 % 1006,0 hPa 0,0 l/m 0,0 km/h (0 Bft) SO 135 5,6 C 7,8 C 0,0 km/h (0 Bft)
15.11.2014 15:45 8,1 C 84 % 1006,0 hPa 0,0 l/m 0,0 km/h (0 Bft) SO 135 5,6 C 7,8 C 0,0 km/h (0 Bft)
15.11.2014 15:50 8,1 C 84 % 1006,0 hPa 0,0 l/m 0,0 km/h (0 Bft) SO 135 5,6 C 7,8 C 0,0 km/h (0 Bft)
15.11.2014 15:55 8,0 C 84 % 1005,9 hPa 0,0 l/m 0,0 km/h (0 Bft) SO 135 5,5 C 7,8 C 0,0 km/h (0 Bft)
15.11.2014 16:00 7,8 C 85 % 1005,9 hPa 0,0 l/m 0,0 km/h (0 Bft) SO 135 5,4 C 7,8 C 0,0 km/h (0 Bft)
15.11.2014 16:05 7,7 C 85 % 1005,9 hPa 0,0 l/m 0,0 km/h (0 Bft) SO 135 5,3 C 7,8 C 0,0 km/h (0 Bft)
15.11.2014 16:10 7,5 C 85 % 1005,9 hPa 0,0 l/m 0,0 km/h (0 Bft) SO 135 5,1 C 7,8 C 0,0 km/h (0 Bft)
15.11.2014 16:15 7,5 C 85 % 1005,5 hPa 0,0 l/m 0,0 km/h (0 Bft) SO 135 5,1 C 7,8 C 0,0 km/h (0 Bft)
15.11.2014 16:20 7,3 C 85 % 1005,5 hPa 0,0 l/m 0,0 km/h (0 Bft) SO 135 4,9 C 7,8 C 0,0 km/h (0 Bft)
15.11.2014 16:25 7,3 C 85 % 1005,5 hPa 0,0 l/m 0,0 km/h (0 Bft) SO 135 4,9 C 7,8 C 0,0 km/h (0 Bft)
15.11.2014 16:30 7,3 C 86 % 1005,5 hPa 0,0 l/m 0,0 km/h (0 Bft) SO 135 5,1 C 7,8 C 0,0 km/h (0 Bft)
15.11.2014 16:35 7,2 C 86 % 1005,2 hPa 0,0 l/m 0,0 km/h (0 Bft) SO 135 5,0 C 7,8 C 0,0 km/h (0 Bft)
15.11.2014 16:40 7,2 C 87 % 1005,2 hPa 0,0 l/m 0,0 km/h (0 Bft) SO 135 5,2 C 7,8 C 0,0 km/h (0 Bft)
15.11.2014 16:45 7,0 C 87 % 1005,2 hPa 0,0 l/m 0,0 km/h (0 Bft) SO 135 5,0 C 7,8 C 0,0 km/h (0 Bft)
15.11.2014 16:50 6,8 C 87 % 1005,2 hPa 0,0 l/m 0,0 km/h (0 Bft) SO 135 4,8 C 7,8 C 0,0 km/h (0 Bft)
15.11.2014 16:55 6,8 C 87 % 1005,0 hPa 0,0 l/m 0,0 km/h (0 Bft) SO 135 4,8 C 7,8 C 0,0 km/h (0 Bft)
15.11.2014 17:00 6,7 C 88 % 1005,0 hPa 0,0 l/m 0,0 km/h (0 Bft) SO 135 4,9 C 7,8 C 0,0 km/h (0 Bft)
15.11.2014 17:05 6,8 C 88 % 1005,0 hPa 0,0 l/m 0,0 km/h (0 Bft) SO 135 5,0 C 7,8 C 0,0 km/h (0 Bft)
15.11.2014 17:10 6,5 C 88 % 1005,0 hPa 0,0 l/m 0,0 km/h (0 Bft) SO 135 4,7 C 7,8 C 0,0 km/h (0 Bft)
15.11.2014 17:15 6,7 C 89 % 1004,6 hPa 0,0 l/m 0,0 km/h (0 Bft) SO 135 5,0 C 7,8 C 0,0 km/h (0 Bft)
15.11.2014 17:20 6,4 C 89 % 1004,6 hPa 0,0 l/m 0,0 km/h (0 Bft) SO 135 4,7 C 7,8 C 0,0 km/h (0 Bft)
15.11.2014 17:25 6,3 C 89 % 1004,6 hPa 0,0 l/m 0,0 km/h (0 Bft) SO 135 4,6 C 7,8 C 0,0 km/h (0 Bft)
15.11.2014 17:30 6,1 C 89 % 1004,6 hPa 0,0 l/m 0,0 km/h (0 Bft) SO 135 4,4 C 7,8 C 0,0 km/h (0 Bft)
15.11.2014 17:35 6,0 C 89 % 1004,4 hPa 0,0 l/m 0,0 km/h (0 Bft) SO 135 4,3 C 7,8 C 0,0 km/h (0 Bft)
15.11.2014 17:40 6,0 C 89 % 1004,4 hPa 0,0 l/m 0,0 km/h (0 Bft) SO 135 4,3 C 7,8 C 0,0 km/h (0 Bft)
15.11.2014 17:43 6,1 C 89 % 1004,4 hPa 0,0 l/m 0,0 km/h (0 Bft) SO 135 4,4 C 7,8 C 0,0 km/h (0 Bft)
15.11.2014 17:45 6,1 C 89 % 1004,4 hPa 0,0 l/m 0,0 km/h (0 Bft) SO 135 4,4 C 7,8 C 0,0 km/h (0 Bft)
15.11.2014 17:50 6,1 C 89 % 1004,4 hPa 0,0 l/m 0,0 km/h (0 Bft) SO 135 4,4 C 7,8 C 0,0 km/h (0 Bft)
15.11.2014 17:55 6,0 C 89 % 1004,2 hPa 0,0 l/m 0,0 km/h (0 Bft) SO 135 4,3 C 7,8 C 0,0 km/h (0 Bft)
15.11.2014 18:00 6,0 C 90 % 1004,2 hPa 0,0 l/m 0,0 km/h (0 Bft) SO 135 4,5 C 7,8 C 0,0 km/h (0 Bft)
15.11.2014 18:05 6,0 C 90 % 1004,2 hPa 0,0 l/m 0,0 km/h (0 Bft) SO 135 4,5 C 7,8 C 0,0 km/h (0 Bft)
15.11.2014 18:10 5,7 C 90 % 1004,2 hPa 0,0 l/m 0,0 km/h (0 Bft) SO 135 4,2 C 7,8 C 0,0 km/h (0 Bft)
15.11.2014 18:15 5,7 C 91 % 1004,1 hPa 0,0 l/m 0,0 km/h (0 Bft) SO 135 4,3 C 7,8 C 0,0 km/h (0 Bft)
15.11.2014 18:20 5,7 C 91 % 1004,1 hPa 0,0 l/m 0,0 km/h (0 Bft) SO 135 4,3 C 7,8 C 0,0 km/h (0 Bft)
15.11.2014 18:25 5,5 C 91 % 1004,1 hPa 0,0 l/m 0,0 km/h (0 Bft) SO 135 4,2 C 7,8 C 0,0 km/h (0 Bft)
15.11.2014 18:30 5,3 C 91 % 1004,1 hPa 0,0 l/m 0,0 km/h (0 Bft) SO 135 4,0 C 7,8 C 0,0 km/h (0 Bft)
15.11.2014 18:35 5,1 C 91 % 1003,6 hPa 0,0 l/m 0,0 km/h (0 Bft) SO 135 3,8 C 7,8 C 0,0 km/h (0 Bft)
15.11.2014 18:40 5,4 C 91 % 1003,6 hPa 0,0 l/m 0,0 km/h (0 Bft) SO 135 4,1 C 7,8 C 0,0 km/h (0 Bft)
15.11.2014 18:45 5,4 C 91 % 1003,6 hPa 0,0 l/m 0,0 km/h (0 Bft) SO 135 4,1 C 7,8 C 0,0 km/h (0 Bft)
15.11.2014 18:50 5,4 C 91 % 1003,6 hPa 0,0 l/m 0,0 km/h (0 Bft) SO 135 4,1 C 7,8 C 0,0 km/h (0 Bft)
15.11.2014 18:55 5,2 C 91 % 1003,4 hPa 0,0 l/m 0,0 km/h (0 Bft) SO 135 3,9 C 7,8 C 0,0 km/h (0 Bft)
15.11.2014 19:00 4,8 C 92 % 1003,4 hPa 0,0 l/m 0,0 km/h (0 Bft) SO 135 3,6 C 7,8 C 0,0 km/h (0 Bft)
15.11.2014 19:05 4,5 C 91 % 1003,4 hPa 0,0 l/m 0,0 km/h (0 Bft) SO 135 3,2 C 7,8 C 0,0 km/h (0 Bft)
15.11.2014 19:10 4,6 C 91 % 1003,4 hPa 0,0 l/m 0,0 km/h (0 Bft) SO 135 3,3 C 7,8 C 0,0 km/h (0 Bft)
15.11.2014 19:15 4,6 C 92 % 1002,9 hPa 0,0 l/m 0,0 km/h (0 Bft) SO 135 3,4 C 7,8 C 0,0 km/h (0 Bft)
15.11.2014 19:20 4,5 C 92 % 1002,9 hPa 0,0 l/m 0,0 km/h (0 Bft) SO 135 3,3 C 7,8 C 0,0 km/h (0 Bft)
15.11.2014 19:25 4,4 C 92 % 1002,9 hPa 0,0 l/m 0,0 km/h (0 Bft) SO 135 3,2 C 7,8 C 0,0 km/h (0 Bft)
15.11.2014 19:30 5,4 C 92 % 1002,9 hPa 0,0 l/m 0,0 km/h (0 Bft) SO 135 4,2 C 7,8 C 0,0 km/h (0 Bft)
15.11.2014 19:35 5,6 C 93 % 1002,9 hPa 0,0 l/m 0,0 km/h (0 Bft) SO 135 4,6 C 7,8 C 0,0 km/h (0 Bft)
15.11.2014 19:40 5,8 C 93 % 1002,9 hPa 0,0 l/m 0,0 km/h (0 Bft) SO 135 4,8 C 7,8 C 0,0 km/h (0 Bft)
15.11.2014 19:45 5,8 C 93 % 1002,9 hPa 0,0 l/m 0,0 km/h (0 Bft) SO 135 4,8 C 7,8 C 0,0 km/h (0 Bft)
15.11.2014 19:50 5,8 C 93 % 1002,9 hPa 0,0 l/m 0,0 km/h (0 Bft) SO 135 4,8 C 7,8 C 0,0 km/h (0 Bft)
15.11.2014 19:55 5,9 C 93 % 1002,6 hPa 0,0 l/m 0,0 km/h (0 Bft) SO 135 4,9 C 7,8 C 0,0 km/h (0 Bft)
15.11.2014 20:00 5,9 C 94 % 1002,6 hPa 0,0 l/m 0,0 km/h (0 Bft) SO 135 5,0 C 7,8 C 0,0 km/h (0 Bft)
15.11.2014 20:05 5,8 C 94 % 1002,6 hPa 0,0 l/m 0,0 km/h (0 Bft) SO 135 4,9 C 7,8 C 0,0 km/h (0 Bft)
15.11.2014 20:10 5,8 C 94 % 1002,6 hPa 0,0 l/m 0,0 km/h (0 Bft) SO 135 4,9 C 7,8 C 0,0 km/h (0 Bft)
15.11.2014 20:15 5,9 C 94 % 1002,6 hPa 0,0 l/m 0,0 km/h (0 Bft) SO 135 5,0 C 7,8 C 0,0 km/h (0 Bft)
15.11.2014 20:20 5,8 C 94 % 1002,6 hPa 0,0 l/m 0,0 km/h (0 Bft) SO 135 4,9 C 7,8 C 0,0 km/h (0 Bft)
15.11.2014 20:25 5,8 C 94 % 1002,6 hPa 0,0 l/m 0,0 km/h (0 Bft) SO 135 4,9 C 7,8 C 0,0 km/h (0 Bft)
15.11.2014 20:30 5,8 C 94 % 1002,6 hPa 0,0 l/m 0,0 km/h (0 Bft) SO 135 4,9 C 7,8 C 0,0 km/h (0 Bft)
15.11.2014 20:35 5,8 C 94 % 1002,4 hPa 0,0 l/m 0,0 km/h (0 Bft) SO 135 4,9 C 7,8 C 0,0 km/h (0 Bft)
15.11.2014 20:40 5,8 C 94 % 1002,4 hPa 0,0 l/m 0,0 km/h (0 Bft) SO 135 4,9 C 7,8 C 0,0 km/h (0 Bft)
15.11.2014 20:43 5,8 C 94 % 1002,4 hPa 0,0 l/m 0,0 km/h (0 Bft) SO 135 4,9 C 7,8 C 0,0 km/h (0 Bft)
15.11.2014 20:45 5,8 C 94 % 1002,4 hPa 0,0 l/m 0,0 km/h (0 Bft) SO 135 4,9 C 7,8 C 0,0 km/h (0 Bft)
15.11.2014 20:50 5,8 C 94 % 1002,4 hPa 0,0 l/m 0,0 km/h (0 Bft) SO 135 4,9 C 7,8 C 0,0 km/h (0 Bft)
15.11.2014 20:55 5,8 C 94 % 1002,5 hPa 0,0 l/m 0,0 km/h (0 Bft) SO 135 4,9 C 7,8 C 0,0 km/h (0 Bft)
15.11.2014 21:00 5,8 C 94 % 1002,5 hPa 0,0 l/m 0,0 km/h (0 Bft) SO 135 4,9 C 7,8 C 0,0 km/h (0 Bft)
15.11.2014 21:05 5,8 C 94 % 1002,5 hPa 0,0 l/m 0,0 km/h (0 Bft) SO 135 4,9 C 7,8 C 0,0 km/h (0 Bft)
15.11.2014 21:10 5,8 C 94 % 1002,5 hPa 0,0 l/m 0,0 km/h (0 Bft) SO 135 4,9 C 7,8 C 0,0 km/h (0 Bft)
15.11.2014 21:15 5,8 C 94 % 1002,1 hPa 0,0 l/m 0,0 km/h (0 Bft) SO 135 4,9 C 7,8 C 0,0 km/h (0 Bft)
15.11.2014 21:20 5,8 C 94 % 1002,1 hPa 0,0 l/m 0,0 km/h (0 Bft) SO 135 4,9 C 7,8 C 0,0 km/h (0 Bft)
15.11.2014 21:25 5,8 C 94 % 1002,1 hPa 0,0 l/m 0,0 km/h (0 Bft) SO 135 4,9 C 7,8 C 0,0 km/h (0 Bft)
15.11.2014 21:30 5,8 C 94 % 1002,1 hPa 0,0 l/m 0,0 km/h (0 Bft) SO 135 4,9 C 7,8 C 0,0 km/h (0 Bft)
15.11.2014 21:35 5,8 C 94 % 1002,0 hPa 0,0 l/m 0,0 km/h (0 Bft) SO 135 4,9 C 7,8 C 0,0 km/h (0 Bft)
15.11.2014 21:40 5,8 C 94 % 1002,0 hPa 0,0 l/m 0,0 km/h (0 Bft) SO 135 4,9 C 7,8 C 0,0 km/h (0 Bft)
15.11.2014 21:45 5,7 C 94 % 1002,0 hPa 0,0 l/m 0,0 km/h (0 Bft) SO 135 4,8 C 7,8 C 0,0 km/h (0 Bft)
15.11.2014 21:50 5,7 C 94 % 1002,0 hPa 0,0 l/m 0,0 km/h (0 Bft) SO 135 4,8 C 7,8 C 0,0 km/h (0 Bft)
15.11.2014 21:55 5,8 C 94 % 1002,0 hPa 0,0 l/m 0,0 km/h (0 Bft) SO 135 4,9 C 7,8 C 0,0 km/h (0 Bft)
15.11.2014 22:00 5,7 C 94 % 1002,0 hPa 0,0 l/m 0,0 km/h (0 Bft) SO 135 4,8 C 7,8 C 0,0 km/h (0 Bft)
15.11.2014 22:05 5,7 C 94 % 1002,0 hPa 0,0 l/m 0,0 km/h (0 Bft) SO 135 4,8 C 7,8 C 0,0 km/h (0 Bft)
15.11.2014 22:10 5,7 C 94 % 1002,0 hPa 0,0 l/m 0,0 km/h (0 Bft) SO 135 4,8 C 7,8 C 0,0 km/h (0 Bft)
15.11.2014 22:15 5,7 C 94 % 1001,9 hPa 0,0 l/m 0,0 km/h (0 Bft) SO 135 4,8 C 7,8 C 0,0 km/h (0 Bft)
15.11.2014 22:20 5,7 C 94 % 1001,9 hPa 0,0 l/m 0,0 km/h (0 Bft) SO 135 4,8 C 7,8 C 0,0 km/h (0 Bft)
15.11.2014 22:25 5,7 C 94 % 1001,9 hPa 0,0 l/m 0,0 km/h (0 Bft) SO 135 4,8 C 7,8 C 0,0 km/h (0 Bft)
15.11.2014 22:30 5,7 C 94 % 1001,9 hPa 0,0 l/m 0,0 km/h (0 Bft) SO 135 4,8 C 7,8 C 0,0 km/h (0 Bft)
15.11.2014 22:35 5,7 C 94 % 1002,1 hPa 0,0 l/m 0,0 km/h (0 Bft) SO 135 4,8 C 7,8 C 0,0 km/h (0 Bft)
15.11.2014 22:40 5,7 C 94 % 1002,1 hPa 0,0 l/m 0,0 km/h (0 Bft) SO 135 4,8 C 7,8 C 0,0 km/h (0 Bft)
15.11.2014 22:45 5,8 C 94 % 1002,1 hPa 0,0 l/m 0,0 km/h (0 Bft) SO 135 4,9 C 7,8 C 0,0 km/h (0 Bft)
15.11.2014 22:50 5,8 C 94 % 1002,1 hPa 0,0 l/m 0,0 km/h (0 Bft) SO 135 4,9 C 7,8 C 0,0 km/h (0 Bft)
15.11.2014 22:55 5,8 C 94 % 1001,6 hPa 0,0 l/m 0,0 km/h (0 Bft) SO 135 4,9 C 7,8 C 0,0 km/h (0 Bft)
15.11.2014 23:00 5,8 C 94 % 1001,6 hPa 0,0 l/m 0,0 km/h (0 Bft) SO 135 4,9 C 7,8 C 0,0 km/h (0 Bft)
15.11.2014 23:05 5,8 C 94 % 1001,6 hPa 0,0 l/m 0,0 km/h (0 Bft) SO 135 4,9 C 7,8 C 0,0 km/h (0 Bft)
15.11.2014 23:10 5,8 C 94 % 1001,6 hPa 0,0 l/m 0,0 km/h (0 Bft) SO 135 4,9 C 7,8 C 0,0 km/h (0 Bft)
15.11.2014 23:15 5,7 C 94 % 1001,4 hPa 0,0 l/m 0,0 km/h (0 Bft) SO 135 4,8 C 7,8 C 0,0 km/h (0 Bft)
15.11.2014 23:20 5,8 C 94 % 1001,4 hPa 0,0 l/m 0,0 km/h (0 Bft) SO 135 4,9 C 7,8 C 0,0 km/h (0 Bft)
15.11.2014 23:25 5,8 C 94 % 1001,4 hPa 0,0 l/m 0,0 km/h (0 Bft) SO 135 4,9 C 7,8 C 0,0 km/h (0 Bft)
15.11.2014 23:30 5,8 C 94 % 1001,4 hPa 0,0 l/m 0,0 km/h (0 Bft) SO 135 4,9 C 7,8 C 0,0 km/h (0 Bft)
15.11.2014 23:35 5,8 C 94 % 1001,7 hPa 0,0 l/m 0,0 km/h (0 Bft) SO 135 4,9 C 7,8 C 0,0 km/h (0 Bft)
15.11.2014 23:38 5,8 C 95 % 1001,7 hPa 0,0 l/m 0,0 km/h (0 Bft) SO 135 5,1 C 7,8 C 0,0 km/h (0 Bft)
15.11.2014 23:45 5,8 C 95 % 1001,7 hPa 0,0 l/m 0,0 km/h (0 Bft) SO 135 5,1 C 7,8 C 0,0 km/h (0 Bft)
15.11.2014 23:50 5,8 C 95 % 1001,7 hPa 0,0 l/m 0,0 km/h (0 Bft) SO 135 5,1 C 7,8 C 0,0 km/h (0 Bft)
15.11.2014 23:55 5,8 C 95 % 1001,7 hPa 0,0 l/m 0,0 km/h (0 Bft) SO 135 5,1 C 7,8 C 0,0 km/h (0 Bft)
_ Min-Zeit 06:50 13:40 23:30 - 23:55 - - 06:50 23:55 23:55
Minimum _ 0,0 C 75 % 1001,4 hPa - 0,0 km/h (0 Bft) - - -0,4 C 7,8 C 0,0 km/h (0 Bft)
_ Max-Zeit 13:30 08:55 11:10 03:40 23:55 - - 13:05 23:55 23:55
Maximum _ 10,9 C 97 % 1008,8 hPa 0,7 l/m 0,0 km/h
SO (0 Bft)
- - 7,5 C 7,8 C 0,0 km/h
SO (0 Bft)
Durchschnitt _ 5,1 C 91 % 1005,8 hPa #0,7 l/m 0,0 km/h (0 Bft) - - - 3,7 C 7,8 C 0,0 km/h (0 Bft)